www.pogodaiklimat.ru

ПОГОДА в Андовере, NJ

  • Прогноз погоды в Андовере
  • Монитор погоды в Андовере
  • Климат в Андовере

АРХИВ ПОГОДЫ в Андовере

Время (UTC), дата Ветер
(напр.,м/с)
 
Видим.   Явления Облачность Т
(С)
Тd
(С)
f
(%)
Тe
(С)
Тes
(С)
Комфортность

P
(гПа)

Po
(гПа)
Тmin
(С)
Tmax
(С)
R
(мм)
SD
(см)
20:54 24.03 ЮЗ  н/о    н/о  +13.3  -6.7  24  +12  +12    1017.0  994.9         
21:54 24.03 Ю  н/о    н/о  +12.8  -6.7  25  +12  +12    1017.2  995.2         
22:54 24.03 ЮЗ  н/о    н/о  +11.7  -6.7  27  +12  +12    1017.5  995.5  +11.7  +15.0     
23:54 24.03   н/о    н/о  +9.4  -4.4  37  +9  +9    1017.8  995.9         
00:54 25.03 Ю  н/о    н/о  +7.8  -2.2  49  +7  +7    1017.8  995.9         
01:54 25.03   н/о    н/о  +7.2  -0.6  58  +7  +7    1017.8  996.2         
02:54 25.03   н/о    н/о  +7.2  -1.1  56  +7  +7    1017.6  995.9         
03:54 25.03 Ю  н/о    н/о  +8.3  -1.1  52  +7  +7    1017.4  995.9         
04:54 25.03 нст  н/о    н/о  +10.0  -2.8  41  +9  +9    1016.8  995.2  +6.7  +11.7     
05:54 25.03   н/о    н/о  +10.0  -0.6  48  +10  +10    1016.7  995.2         
06:54 25.03 СВ  н/о    н/о  +7.8  +1.1  63  +7  +7    1016.5  994.9         
07:54 25.03 С  н/о    н/о  +9.4  -4.4  37  +9  +9    1016.6  995.2         
08:54 25.03 С  н/о    н/о  +8.3  -3.9  42  +6  +6    1015.7  994.2         
09:54 25.03   н/о    н/о  +6.1  0.0  65  +6  +6    1016.9  995.2         
10:54 25.03 С  н/о    н/о  +7.2  -3.3  47  +4  +4    1017.2  995.5  +6.1  +10.6     
11:54 25.03 СВ  н/о    н/о  +5.6  -2.2  57  +1  +1    1018.4  996.5         
12:54 25.03 нст  н/о    н/о  +6.1  -2.2  55  +3  +3    1019.0  997.2         
13:54 25.03 нст  н/о    н/о  +6.1  -2.2  55  +4  +4    1019.8  997.8         
14:54 25.03 нст  н/о    н/о  +6.1  -2.8  53  +4  +4    1019.4  997.5         
15:54 25.03 нст  н/о    н/о  +5.6  -2.8  55  +3  +3    1019.4  997.5         
16:54 25.03 СВ  н/о    н/о  +5.6  -3.3  53  +3  +3    1019.1  997.2  +5.6  +7.2     
17:54 25.03   н/о    н/о  +6.1  -4.4  47  +6  +6    1018.5  996.9         
18:54 25.03 нст  н/о    н/о  +6.7  -3.9  47  +6  +6    1018.4  996.5         
19:54 25.03 Ю  н/о    н/о  +6.7  -4.4  45  +6  +6    1017.7  995.9         
20:54 25.03 Ю  н/о    н/о  +6.7  -4.4  45  +6  +6    1017.0  995.2         
21:54 25.03 Ю  н/о    н/о  +6.7  -4.4  45  +5  +5    1018.4  996.5         
22:54 25.03   н/о    н/о  +6.1  -3.3  51  +6  +6    1018.3  996.5  +5.6  +6.7     
23:54 25.03   н/о    н/о  +5.6  -8.9  34  +6  +6    1018.5  996.5         
00:54 26.03 С  н/о    н/о  +5.6  -14.4  22  +3  +3    1019.1  997.2         
01:54 26.03 С  н/о    н/о  +3.9  -15.6  23  +1  +1    1020.2  998.2         
02:54 26.03 С  н/о    н/о  +2.2  -14.4  28  -1  -1    1020.3  998.2         
03:54 26.03 С  н/о    н/о  +1.1  -14.4  30  -2  -2    1021.0  998.8         
04:54 26.03 С  н/о    н/о  +0.6  -15.0  30  -4  -4    1021.4  999.2  +0.6  +6.1     
05:54 26.03 нст  н/о    н/о  0.0  -14.4  33  -3  -3    1021.6  999.2         
06:54 26.03 С  н/о    н/о  -1.1  -13.9  37  -6  -6    1021.5  999.2         
07:54 26.03 нст  н/о    н/о  -1.7  -15.0  35  -5  -5    1022.1  999.8         
08:54 26.03 СВ  н/о    н/о  -2.2  -13.9  40  -6  -6    1022.9  1000.5         
09:54 26.03   н/о    н/о  -3.3  -13.3  46  -4  -4    1024.0  1001.5         
10:54 26.03 СВ  н/о    н/о  -2.8  -11.7  50  -7  -7    1024.7  1002.2  -3.9  +0.6     
11:54 26.03 нст  н/о    н/о  0.0  -11.7  41  -4  -4    1025.3  1002.8         
12:54 26.03 СВ  4
{8} 
н/о    н/о  +1.7  -13.9  30  -3  -3    1026.1  1003.8         
13:54 26.03     н/о    н/о  +2.8  -13.9  28  +3  +3    1026.8  1004.5         
14:54 26.03 нст  2
{7} 
н/о    н/о  +3.9  -14.4  25  +2  +2    1026.7  1004.1         
15:54 26.03 нст  н/о    н/о  +5.6  -14.4  22  +3  +3    1026.3  1003.8         
16:54 26.03 нст  н/о    н/о  +6.7  -13.9  21  +5  +5    1025.9  1003.5  -2.2  +6.7     
17:54 26.03 С  4
{7} 
н/о    н/о  +7.8  -14.4  19  +5  +5    1025.3  1003.2         
18:54 26.03 С  5
{10} 
н/о    н/о  +7.8  -17.2  15  +5  +5    1025.1  1002.8         
19:54 26.03 С  н/о    н/о  +7.2  -16.7  16  +4  +4    1025.2  1002.8         

 

Местоположение метеостанции Aeroflex-Andover Airport: широта 41.0093 долгота -74.7363 высота над уровнем моря 178 м.

В архиве по умолчанию представлена погода в Андовере за последние 1-2 суток. Обновление информации о фактической погоде в базе происходит ежечасно! Архивные данные за месяц целиком и за предыдущие месяцы Вы можете получить, выбрав интересующий диапазон дат из раскрывающегося списка и нажав кнопку "Ввод!".

Внимание! Архив погоды МЕТАР в базе сайта хранится не более 60 дней. Нет смысла пытаться выбрать более раннюю дату.

Внимание! Время в таблицах - всемирное. Для получения местного времени необходимо прибавить поправку, которая в Андовере равна -5 ч.

Ветер - указаны скорость ветра в м/с и направление, откуда дует ветер: С - северный, СВ - северо-восточный, В - восточный, ЮВ - юго-восточный, Ю - южный, ЮЗ - юго-западный, З - западный, СЗ - северо-западный.
Видимость - горизонтальная дальность видимости в метрах или километрах. При видимости от 1 до 10 км при отсутствии осадков обычно наблюдается дымка, при ухудшении видимости до 1 км и менее - туман. В сухую погоду видимость может ухудшаться дымом, пылью или мглою.
Атмосферные явления - указаны явления, наблюдавшиеся в указанный момент времени.
Облачность - указаны через наклонную черту верхняя и нижняя облачность в баллах и высота нижней границы облаков в метрах. Внимание: облачность, как и прочие метеорологические величины в США измеряются автоматическими метеостанциями. Указанные значения в баллах носят условный характер и показывают процент времени, в течение которого, в среднем, лазерный луч высотомера отражался от облаков обратно.
T - Температура воздуха - температура, измеренная на высоте 2 м над землей.
Td - Температура точки росы - температура, при понижении до которой содержащийся в воздухе водяной пар достигнет насыщения.
f - Относительная влажность воздуха - влажноcть воздуха, измеренная на высоте 2 м над землей.
Te - Эффективная температура - температура, которую ощущает одетый по сезону человек в тени. Характеристика душности погоды. При расчете учитывается влияние влажности воздуха и скорости ветра на теплоощущения человека.
Tes - Эффективная температура на солнце - температура, которую ощущает человек, с поправкой на солнечный нагрев. Характеристика знойности погоды. Зависит от высоты солнца над горизонтом, облачности и скорости ветра. Ночью, в пасмурную погоду, а также при ветре 12 м/с и более поправка равна нулю.
P - Атмосферное давление - приведенное к уровню моря атмосферное давление.
Po - Атмосферное давление - измеренное на уровне метеостанции атмосферное давление.
Tmin - Минимальная температура - минимум температуры воздуха на высоте 2 м над землей.
Tmax - Максимальная температура - максимум температуры воздуха на высоте 2 м над землей.
R - Количество осадков - Количество выпавших осадков за 3 или 6 часов, мм.
SD - Снежный покров - Высота снежного покрова, см.